Погода в Табачном

Россия / Республика Адыгея     44°33′23″N   40°05′32″E
темп.,
°C
ветер,
м/с
пор.,
м/с
влажн.,
%
обл.,
%
осадки,
мм/ч
давл.,
гПа
погр.,
м
17 мая, пн
пн1700:00+17ююз227987 0.0 100232
03:00+15вюв2186100 0.0 100315
06:00+16в1190100 0.3 100525
09:00+21ссв0170100 0.4 1006498
12:00+25ссв3351100 0.0 10061594
15:00+19с359394 1.9 1007458
18:00+16зюз019697 6.3 100833
21:00+14ююв0198100 7.9 101114
18 мая, вт
вт1800:00+13юз1297100 0.3 101072
03:00+12ссв119772 0.5 101115
06:00+12ююв1197100 0.0 101256
09:00+18зсз1172100 0.1 1012568
12:00+23ссз254571 0.1 10102085
15:00+20всв346287 0.6 1010602
18:00+20в36672 0.3 1010652
21:00+14вюв23955 0.4 101160
19 мая, ср
ср1900:00+13ююв239558 0.0 100955
03:00+13юз1178100 0.0 100917
06:00+11ююз3898100 4.2 1012293
09:00+14ю3995100 7.9 1012749
12:00+20зюз813430 0.3 10131824
15:00+20зюз714410 0.3 10142110
18:00+17зюз614530 0.0 10151705
21:00+11юз24630 0.0 1016121
20 мая, чт
чт2000:00+8ю22715 0.0 101623
03:00+8ююв22660 0.0 101616
06:00+9юв1166100 0.0 101629
09:00+18всв2243100 0.0 1015498
12:00+22всв3334100 0.0 10141319
15:00+22всв4442100 0.0 10121128
18:00+20всв4963100 0.0 1011642
21:00+15в26900 0.0 1011132
21 мая, пт
пт2100:00+13ююв22880 0.0 101023
03:00+14юв22550 0.0 100914
06:00+15ююв116027 0.0 100912
09:00+26всв12415 0.0 1008279
12:00+31ссз22310 0.0 1007917
15:00+30ссз43425 0.0 1007920
18:00+26ссз23705 0.0 1008163
21:00+19ю11925 0.0 100911